This is the latest recevied weather packets stored in our database for station/object W4MLN-1. If no packets are shown the sender has not sent any weather packets the latest 10 day(s).
| Time | Temp. | Humidity | Pressure | Rain* | Wind** | Luminosity | Snow |
|---|---|---|---|---|---|---|---|
| 1777726624 | 7.78° C | 55% | 1013.6 hPa | 0 mm | - | 186 W/m² | - |
| 1777726325 | 7.78° C | 53% | 1013.6 hPa | 0 mm | - | 213 W/m² | - |
| 1777726012 | 7.78° C | 55% | 1013.6 hPa | 0 mm | - | 176 W/m² | - |
| 1777725711 | 7.22° C | 59% | 1013.4 hPa | 0 mm | - | 166 W/m² | - |
| 1777725412 | 7.22° C | 61% | 1013.4 hPa | 0 mm | - | 170 W/m² | - |
| 1777725112 | 7.22° C | 64% | 1013.4 hPa | 0 mm | - | 127 W/m² | - |
| 1777724797 | 7.22° C | 63% | 1013.2 hPa | 0 mm | - | 101 W/m² | - |
| 1777724496 | 6.67° C | 67% | 1013.2 hPa | 0 mm | - | 83 W/m² | - |
| 1777724197 | 6.67° C | 69% | 1013.2 hPa | 0 mm | - | 79 W/m² | - |
| 1777723898 | 6.67° C | 71% | 1013.2 hPa | 0 mm | - | 85 W/m² | - |
| 1777723597 | 6.67° C | 76% | 1013.1 hPa | 0 mm | - | 74 W/m² | - |
| 1777723298 | 6.67° C | 78% | 1013.1 hPa | 0 mm | - | 64 W/m² | - |
| 1777722998 | 6.67° C | 82% | 1013 hPa | 0 mm | - | 64 W/m² | - |
| 1777722682 | 6.67° C | 83% | 1013.1 hPa | 0 mm | - | 65 W/m² | - |
| 1777722383 | 6.11° C | 85% | 1013.3 hPa | 0 mm | - | 55 W/m² | - |
| 1777722084 | 6.11° C | 86% | 1013.3 hPa | 0 mm | - | 40 W/m² | - |
| 1777721769 | 6.11° C | 87% | 1013.4 hPa | 0 mm | - | 44 W/m² | - |
| 1777721469 | 6.11° C | 87% | 1013.4 hPa | 0 mm | - | 30 W/m² | - |
| 1777721168 | 6.11° C | 88% | 1013.4 hPa | 0 mm | - | 33 W/m² | - |
| 1777720867 | 6.11° C | 88% | 1013.4 hPa | 0 mm | - | 42 W/m² | - |
| 1777720568 | 5.56° C | 89% | 1013.4 hPa | 0 mm | - | 30 W/m² | - |
| 1777720269 | 5.56° C | 89% | 1013.3 hPa | 0 mm | - | 26 W/m² | - |
| 1777719968 | 5.56° C | 90% | 1013.2 hPa | 0 mm | - | 20 W/m² | - |
| 1777719667 | 5.56° C | 89% | 1013.1 hPa | 0 mm | - | 18 W/m² | - |
| 1777719366 | 5.56° C | 89% | 1013.1 hPa | 0 mm | - | 15 W/m² | - |
* Rain latest hour (hover to see other rain measurements)
** Current wind speed in m/s (hover to see current wind gust speed)